Tracking 20712 objects as of 29-May-2020
HD Live streaming from Space Station
objects crossing your sky now

THORAD AGENA D DEB

Track THORAD AGENA D DEB now!
10-day predictions


NORAD ID: 4171
Int'l Code: 1969-082AP
Perigee: 765.5 km
Apogee: 822.4 km
Inclination: 70.1 °
Period: 100.6 minutes
Semi major axis: 7164 km
RCS: 0.0461 m2 (small)
Launch date: September 30, 1969
Source: United States (US)
Launch site: AIR FORCE WESTERN TEST RANGE (AFWTR)

Note: This is SATELLITE DEBRIS
aabbcc
Your satellite tracking list
Your tracking list is empty




NASA's NSSDC Master Catalog

Two Line Element Set (TLE):
1  4171U 69082AP  20149.83804264 +.00000188 +00000-0 +91645-4 0  9995
2  4171 070.0762 143.8426 0039706 326.5272 033.3343 14.31460342622385
Source of the keplerian elements: AFSPC